Location: Franzen
(48.6167°N, 15.3833°E)
Time: 02:52:52
(UTC+00:00)

Transit 2A - Pass Details

Date: 03 August 2021
Orbit: 594 x 964 km, 66.7° (Epoch: 27 September)

Event Time Altitude Azimuth Distance (km) Brightness Sun altitude
Rises 14:29:54 0° 315° (NW) 3,280 9.6 38.2°
Reaches altitude 10° 14:32:37 10° 302° (WNW) 2,411 9.2 37.7°
Maximum altitude 14:37:00 24° 250° (WSW) 1,706 9.9 37.1°
Drops below altitude 10° 14:41:41 10° 198° (SSW) 2,580 9.3 36.3°
Sets 14:44:43 0° 186° (S) 3,564 9.7 35.8°
